[Iaude] MPEC X307: 2023 XM14 [a=2.53,e=0.59,i=2.7,H=23.4]

mpec at marsden.cfa.harvard.edu mpec at marsden.cfa.harvard.edu
Fri Dec 15 15:18:09 EST 2023


M.P.E.C. 2023-X307                            Issued 2023 December 15, 20:16 UT

     The Minor Planet Electronic Circulars contain information on unusual
         minor planets, routine data on comets and natural satellites,
         and occasional editorial announcements.  They are published
    on behalf of Division F of the International Astronomical Union by the
          Minor Planet Center, Smithsonian Astrophysical Observatory,
                          Cambridge, MA 02138, U.S.A.
			  
             Prepared using the Tamkin Foundation Computer Network

                              MPC at CFA.HARVARD.EDU
            URL https://www.minorplanetcenter.net/    ISSN 1523-6714

                                   2023 XM14                                    


Observations:
     K23X14M*1C2023 12 14.15506401 27 26.201+26 42 47.34         20.15GVEX307G96
     K23X14M 1C2023 12 14.16074401 27 29.567+26 43 15.24         20.04GVEX307G96
     K23X14M 1C2023 12 14.16643101 27 32.954+26 43 43.75         21.03GVEX307G96
     K23X14M 1C2023 12 14.17211601 27 36.277+26 44 11.22         20.08GVEX307G96
     K23X14M  C2023 12 14.19461601 27 50.448+26 45 55.98         20.2 GVEX307U74
     K23X14M  C2023 12 14.19837901 27 52.690+26 46 15.32         20.2 GVEX307U74
     K23X14M mC2023 12 14.24020001 28 16.903+26 49 41.95         20.22GVEX307I52
     K23X14M mC2023 12 14.24072901 28 17.238+26 49 44.29         20.53GVEX307I52
     K23X14M mC2023 12 14.24125701 28 17.548+26 49 47.14         19.88GVEX307I52
     K23X14M mC2023 12 14.24178601 28 17.900+26 49 49.26         20.14GVEX307I52
     K23X14M mC2023 12 14.24231901 28 18.214+26 49 51.96         20.35GVEX307I52
     K23X14M mC2023 12 14.24284801 28 18.563+26 49 54.70         20.81GVEX307I52
     K23X14M mC2023 12 14.24337701 28 18.854+26 49 56.89         20.97GVEX307I52
     K23X14M mC2023 12 14.24390701 28 19.153+26 49 59.66         20.38GVEX307I52
     K23X14M pC2023 12 14.86634101 34 52.50 +27 40 13.0          20.5 GVEX307L01
     K23X14M pC2023 12 14.87057901 34 55.08 +27 40 32.9          20.4 GVEX307L01
     K23X14M KC2023 12 14.87230701 34 56.25 +27 40 40.8          20.3 GVEX307L01
     K23X14M KC2023 12 15.00260701 36 23.03 +27 51 10.8          20.4 GVEX307H21
     K23X14M KC2023 12 15.00540201 36 24.75 +27 51 24.5          20.4 GVEX307H21
     K23X14M KC2023 12 15.00875701 36 26.81 +27 51 40.7          20.5 GVEX307H21
     K23X14M KB2023 12 15.77180 01 44 35.72 +28 51 03.3                ZEX307106
     K23X14M KB2023 12 15.78052 01 44 41.19 +28 51 43.3          20.0 RZEX307106
     K23X14M KB2023 12 15.78705 01 44 45.28 +28 52 13.0          19.9 RZEX307106
     K23X14M KB2023 12 15.79403 01 44 49.64 +28 52 45.5          19.7 RZEX307106

Observer details:
106 Crni Vrh.  Observer H. Mikuz.  0.60-m f/3.3 reflector + CMO.
G96 Mt. Lemmon Survey.  Observer J. K. Hogan.  Measurers E. C. Beshore, D.
    Fay, J. B. Fazekas, D. C. Fuls, A. R. Gibbs, A. D. Grauer, H. Groeller, J.
    K. Hogan, R. A. Kowalski, S. M. Larson, G. J. Leonard, D. Rankin, R. L.
    Seaman, F. C. Shelly, K. W. Wierzchos.  1.5-m reflector + 10K CCD.
H21 Astronomical Research Observatory, Westfield.  Observer R. Holmes.
    Measurers T. Linder, R. Holmes, L. Horn.  0.76-m f/3.0 astrograph + CCD.
I52 Steward Observatory, Mt. Lemmon Station.  Observer K. W. Wierzchos.
    Measurers E. C. Beshore, D. Fay, J. B. Fazekas, D. C. Fuls, A. R. Gibbs,
    A. D. Grauer, H. Groeller, J. K. Hogan, R. A. Kowalski, S. M. Larson, G.
    J. Leonard, D. Rankin, R. L. Seaman, F. C. Shelly, K. W. Wierzchos.  1.0-m
    prime focus + CCD.
L01 Visnjan Observatory, Tican.  Observers K. Korlevic, I. Lyon.  Measurer K.
    Korlevic.  1.0-m f/2.9 reflector + CCD.
U74 JPL SynTrack Robotic Telescope 2, Auberry.  Observers N. Saini, C. Zhai,
    R. Trahan, M. Zhan, M. Shao.  0.36-m Reflector + CCD.

Orbital elements:
2023 XM14                                                Earth MOID = 0.0500 AU
Epoch 2023 Sept. 13.0 TT = JDT 2460200.5                MPC                     
M 341.25695              (2000.0)            P               Q                  
n   0.24551019     Peri.   21.25737     +0.52164701     -0.85268497             
a   2.5259400      Node    37.31616     +0.77582183     +0.46019270             
e   0.5897009      Incl.    2.69545     +0.35494350     +0.24728732             
P   4.01           H   23.42          G   0.15           U   8                  
Residuals in seconds of arc
231214 G96  0.1+  0.0     231214 I52  0.2-  0.2+    231214 L01  0.8+  0.1-
231214 G96  0.0   0.1-    231214 I52  0.3+  0.3-    231215 H21  0.1-  0.1-
231214 G96  0.2+  0.5+    231214 I52  0.2+  0.1-    231215 H21  0.0   0.0
231214 G96  0.5-  0.1+    231214 I52  0.6+  0.1+    231215 H21  0.1+  0.0
231214 U74  0.1-  0.1-    231214 I52  0.2+  0.3-    231215 106  0.8-  0.4+
231214 U74  0.1-  0.8+    231214 I52  0.0   0.1-    231215 106  0.2-  0.3+
231214 I52  0.3-  0.1+    231214 L01  0.6-  0.3+    231215 106  0.1+  0.1-
231214 I52  0.1-  0.1-    231214 L01  0.7-  0.2+    231215 106  0.3+  0.4+

Ephemeris:
2023 XM14                a,e,i = 2.53, 0.59, 3                   q = 1.0364
Date    TT    R. A. (2000) Decl.     Delta      r    Elong.  Phase     V
2023 11 15    22 37 30.3 -06 54 28   0.1719  1.0507   106.3    64.6    22.0
...
2023 11 30    23 34 50.3 +06 37 07   0.1293  1.0366   109.5    63.8    21.3
...
2023 12 08    00 29 42.2 +17 40 48   0.1153  1.0439   117.8    56.6    20.9
...
2023 12 14    01 25 49.7 +26 30 02   0.1133  1.0560   126.7    48.4    20.6
2023 12 15    01 36 18.7 +27 51 13   0.1138  1.0586   128.2    46.9    20.6
2023 12 16    01 47 02.6 +29 08 41   0.1146  1.0613   129.8    45.4    20.6
...
2023 12 22    02 53 53.8 +35 10 48   0.1247  1.0804   138.6    37.0    20.6
...
2023 12 30    04 15 11.8 +38 22 06   0.1514  1.1133   146.9    28.8    20.8
...
2024 01 14    05 51 06.1 +36 39 23   0.2322  1.1937   152.1    22.7    21.7

A. U. Tomatic                (C) Copyright 2023 MPC           M.P.E.C. 2023-X307





More information about the Iaude mailing list